Temperature
23 20 20 20 21 21 21 21 20 21 21 20 19 19 19 19 19 19 19 19 19 19 19 19 18 18 18 18 18 17 17 17 17 17 16 16 16 16 16 16 16 16 16 16
20 20 22 22 22 22 21 21 20 21 22 21 19 19 19 19 19 19 19 19 19 19 18 18 18 18 18 18 18 17 17 17 17 17 16 16 16 16 16 16 16 16 16 16
21 22 23 23 22 22 21 21 21 21 21 21 19 19 19 19 19 19 19 19 19 19 19 18 18 18 18 18 18 17 17 17 17 16 16 16 16 16 16 16 16 16 15 16
21 22 23 22 22 22 21 22 22 21 19 18 19 17 18 18 18 18 18 19 19 19 19 18 18 18 18 18 18 17 17 17 17 16 16 16 16 16 16 16 15 15 15 15
21 22 22 22 22 22 21 22 22 21 20 19 19 18 17 17 17 17 18 18 18 18 18 18 18 18 18 18 17 17 17 17 16 16 16 16 16 16 16 15 15 15 15 15
22 23 23 22 23 23 22 21 20 18 18 18 18 18 17 16 17 18 18 18 18 18 18 18 18 18 18 17 17 17 17 17 16 16 16 16 16 16 16 15 15 15 15 15
21 22 23 23 22 22 21 18 17 18 17 17 18 18 17 18 18 18 18 18 18 18 18 18 18 18 17 17 17 17 17 16 16 16 16 16 16 16 16 16 16 16 15 15
20 20 22 22 22 21 20 19 18 18 17 17 18 18 18 19 19 19 19 19 18 18 18 18 18 17 17 17 17 17 17 16 16 16 16 16 16 16 16 16 16 16 16 16
19 20 22 23 23 22 21 19 18 17 18 17 17 18 19 19 18 18 18 18 18 18 18 18 18 17 17 17 17 17 16 16 16 16 16 16 16 16 16 16 16 16 16 15
20 20 21 22 22 22 21 20 17 17 17 17 17 17 17 18 18 18 18 18 18 18 18 18 18 17 17 17 17 16 16 16 16 16 16 16 16 16 15 15 16 16 16 16
20 19 20 21 21 21 21 20 18 16 16 16 17 17 19 18 18 18 18 18 18 18 18 18 18 17 17 17 17 16 16 16 16 16 16 16 16 15 15 15 15 16 15 15
19 17 18 19 20 21 20 20 18 17 17 16 16 17 19 18 18 19 18 19 19 18 18 18 18 17 17 17 17 16 16 16 16 16 16 15 15 15 15 15 15 15 15 15
18 17 17 18 18 20 20 20 19 17 16 16 16 17 19 18 19 19 19 19 19 18 18 18 17 17 17 17 17 16 16 16 16 15 15 15 15 15 15 15 15 15 15 15
18 16 17 18 18 19 20 20 19 17 16 16 17 17 18 18 18 18 19 19 19 18 18 18 17 17 17 17 16 16 16 16 16 15 15 15 15 15 15 15 15 15 15 15
17 17 18 18 19 19 20 20 19 18 17 17 17 17 18 18 18 19 19 19 18 18 18 18 17 17 17 17 16 16 16 16 16 15 15 15 15 15 15 15 15 15 15 15
16 17 18 18 19 19 19 19 19 19 19 18 18 18 18 19 19 19 18 18 18 18 18 17 17 17 17 17 16 16 16 16 16 15 15 15 15 15 15 15 15 15 15 15
15 16 16 16 17 19 18 19 19 19 19 19 18 18 18 18 18 18 18 18 18 18 18 17 17 17 17 17 17 16 16 16 16 15 15 15 15 15 15 15 15 15 15 15
15 15 14 15 17 17 18 19 20 19 19 19 19 18 18 18 19 19 19 19 18 18 18 17 17 17 17 17 16 16 16 16 16 15 15 15 15 15 15 15 15 15 14 14
15 15 14 14 15 16 18 19 19 19 19 18 18 17 18 18 18 18 18 18 18 18 18 17 17 17 17 17 16 16 16 16 15 15 15 15 15 15 15 14 14 14 14 14
15 14 14 14 16 16 18 19 20 19 18 18 18 17 17 17 15 16 18 18 18 18 18 17 17 17 17 16 16 16 16 16 15 15 15 15 15 15 14 14 14 14 14 14
15 14 14 14 15 15 17 19 19 17 17 18 19 18 18 17 16 18 17 17 17 17 17 17 17 17 16 16 16 16 15 15 15 15 15 15 15 14 14 14 14 14 14 14
14 14 13 13 14 15 18 18 17 17 19 19 19 19 18 18 18 17 17 17 17 17 16 16 16 16 16 16 16 15 15 15 15 15 15 15 14 14 14 14 14 13 13 13
14 14 14 14 15 17 18 19 19 19 19 19 19 18 18 18 17 17 17 16 16 16 16 16 16 16 16 15 15 15 15 15 15 14 14 14 14 14 14 13 13 13 13 13
14 14 14 14 15 17 18 19 19 19 18 18 18 18 18 17 17 17 16 16 16 16 15 15 15 15 15 15 15 15 15 14 14 14 14 14 14 14 13 13 13 13 13 12
14 14 13 14 15 16 17 18 18 18 18 18 18 17 17 17 17 16 16 15 15 15 15 15 15 15 15 15 15 14 14 14 14 14 13 13 13 13 13 13 13 13 13 12
13 14 13 13 15 15 16 17 17 17 17 17 17 17 17 16 16 16 15 15 15 15 15 15 14 15 15 14 14 14 14 14 14 13 13 13 13 13 13 12 12 12 12 12
Wind_Speed
2 4 1 4 5 4 3 3 3 3 4 4 4 3 3 5 5 6 6 6 6 5 4 4 5 5 5 5 6 6 5 4 4 3 3 2 1 1 2 3 4 5 6 7
5 1 5 3 1 2 3 3 1 1 2 4 3 2 3 4 7 8 8 8 7 5 3 4 5 4 5 5 5 5 5 4 4 3 2 2 2 1 0 1 3 4 4 5
5 4 3 1 1 2 1 3 3 2 1 1 4 2 2 1 1 3 5 6 7 9 8 6 5 4 5 5 5 5 4 4 3 3 3 3 3 2 2 2 2 2 3 4
2 3 1 2 1 3 2 3 3 2 2 2 2 1 4 3 1 2 3 4 6 7 6 6 6 6 6 5 5 5 5 4 3 4 4 4 3 2 2 1 0 1 3 4
2 2 3 1 3 3 5 3 2 2 2 1 0 3 5 1 2 4 4 5 6 7 7 7 7 6 5 5 5 5 5 4 3 3 4 4 2 2 1 0 1 1 1 2
2 2 2 3 3 3 2 4 5 5 4 1 3 4 4 4 6 5 4 5 6 7 7 6 5 5 4 4 4 4 5 3 3 3 4 4 4 3 3 1 1 0 0 1
3 3 2 1 1 3 4 5 4 5 3 3 2 3 5 6 5 7 7 7 6 6 7 6 5 5 5 4 4 4 4 2 2 2 3 4 4 4 5 3 3 2 1 1
1 4 3 2 4 3 2 7 6 3 3 3 3 1 5 4 3 4 5 6 6 6 6 7 7 7 6 5 5 4 4 3 2 1 2 2 3 3 2 3 3 3 3 3
4 4 4 3 2 5 2 2 6 5 1 0 2 2 4 2 3 4 5 5 6 6 6 7 6 6 6 6 5 5 5 3 3 2 2 2 2 2 2 3 3 2 3 3
4 2 3 2 2 1 4 5 5 4 2 1 2 3 4 4 4 4 5 6 6 6 5 6 6 6 6 6 5 4 5 4 3 3 2 2 2 2 2 2 3 3 3 2
3 3 3 2 2 4 1 1 4 3 4 4 2 5 6 9 8 7 8 8 8 8 7 6 6 6 6 5 5 4 4 3 2 3 2 2 2 2 2 2 2 3 3 3
2 4 2 6 6 3 4 4 5 4 2 3 3 6 4 8 7 7 7 7 7 7 6 6 6 5 4 4 5 4 4 4 4 3 2 2 2 2 2 2 2 2 3 3
4 5 2 6 6 3 1 2 4 5 3 3 3 5 3 3 4 5 6 6 6 6 5 5 5 5 4 4 4 4 4 4 4 3 3 2 2 2 2 3 2 2 3 2
5 4 6 7 7 4 3 3 3 5 3 3 6 6 4 3 5 6 6 7 7 7 6 5 4 4 4 4 4 4 4 4 4 4 3 3 3 3 3 3 2 2 2 3
5 3 4 5 6 4 4 5 5 5 7 7 7 7 8 9 9 9 7 7 7 6 6 7 6 5 4 3 4 4 4 3 3 4 4 4 4 3 3 2 2 2 2 3
3 3 0 3 4 4 5 6 6 6 6 6 5 6 7 6 4 5 7 8 7 7 7 7 6 6 5 5 5 4 4 4 3 4 5 4 3 3 3 3 3 2 2 2
2 4 2 3 4 2 6 7 7 5 5 7 8 8 4 4 6 7 8 8 8 8 7 7 7 7 7 7 6 6 5 4 3 4 4 4 4 4 4 4 3 3 3 2
6 4 3 1 1 5 8 5 6 6 5 5 5 4 5 6 7 5 6 8 7 7 7 6 6 6 6 6 5 5 5 5 4 4 4 4 4 4 4 4 4 3 3 2
7 7 4 3 3 6 7 4 4 5 4 3 5 4 3 4 4 2 2 5 6 7 6 6 6 6 6 5 5 4 5 5 5 5 5 5 5 5 4 5 5 4 3 3
4 6 5 4 4 6 7 5 2 4 3 4 4 6 5 5 3 4 3 2 3 3 4 4 4 3 4 4 4 5 5 5 6 6 6 6 5 6 6 6 5 3 3 3
3 3 5 5 5 7 7 4 4 4 7 4 5 6 7 6 6 5 3 2 2 3 3 3 3 3 4 4 4 5 5 6 7 6 5 5 5 6 6 5 4 4 4 3
6 5 6 5 5 8 5 4 6 7 3 3 4 5 6 5 4 3 3 2 1 1 1 2 3 3 3 4 4 5 6 6 5 4 4 3 4 4 3 4 3 4 4 4
7 8 6 8 8 6 4 5 5 4 4 3 4 4 6 5 3 3 2 2 2 2 3 2 3 3 2 3 4 6 6 4 3 3 3 3 3 3 3 4 4 3 4 4
4 2 3 3 6 5 3 1 1 3 4 4 5 5 6 5 5 4 3 3 3 2 3 2 2 3 3 3 3 5 4 4 4 4 4 3 3 3 3 3 4 4 4 4
5 2 2 4 5 3 3 3 2 1 1 2 2 3 5 5 4 4 4 4 4 3 3 3 3 4 4 3 3 3 4 5 5 4 3 3 3 3 3 3 3 4 5 6
5 5 5 6 6 4 6 6 3 2 2 3 3 2 3 4 5 4 4 4 4 4 3 3 3 4 5 4 3 4 4 5 5 4 3 3 3 2 3 3 2 2 4 5
Wind_Direction
44 75 145 219 199 192 178 156 167 214 193 137 154 170 202 174 158 164 167 168 169 179 190 155 151 138 130 129 132 140 136 136 121 106 100 90 70 23 26 48 81 103 116 118
44 269 232 218 203 115 109 120 144 225 184 145 153 194 219 181 179 179 177 178 176 169 161 160 154 140 135 135 133 137 142 144 141 137 140 141 136 116 46 39 61 90 109 122
175 231 222 144 87 80 96 160 188 190 1 91 103 3 310 272 180 174 174 179 176 173 174 172 160 150 137 137 145 145 145 140 140 130 107 87 63 37 30 30 22 49 105 116
198 240 156 97 137 143 227 232 192 169 104 252 149 224 277 250 226 196 185 178 176 174 167 166 162 158 154 157 152 143 137 127 132 131 127 130 134 156 215 209 109 42 92 108
235 170 124 154 222 184 218 238 224 218 152 25 230 154 283 222 221 236 210 187 176 165 162 164 162 162 159 151 147 144 137 133 132 138 143 139 147 181 196 92 95 49 39 80
249 227 172 192 226 199 174 47 26 46 74 338 246 162 265 226 218 223 213 194 183 172 165 164 151 132 132 125 129 141 142 147 154 140 145 153 166 168 161 169 157 171 357 8
334 312 267 150 30 350 74 78 31 6 15 258 253 143 240 238 214 194 188 185 183 173 166 159 146 140 141 141 143 144 138 145 164 158 161 174 178 175 182 188 187 186 200 230
164 288 256 212 182 192 182 138 154 190 222 274 348 210 258 260 208 173 165 164 163 164 169 167 166 163 161 157 150 148 148 148 157 172 202 191 175 171 189 196 189 192 202 215
173 247 270 232 188 151 145 179 174 147 182 289 305 313 326 12 94 121 137 144 161 171 172 171 168 166 166 166 166 164 160 159 171 189 191 193 186 180 195 202 186 196 215 206
156 206 269 277 53 11 159 155 98 122 157 248 279 248 227 220 195 167 162 169 178 175 170 166 172 175 180 180 172 170 168 175 185 185 191 184 204 191 188 191 189 193 206 186
121 140 296 350 204 227 162 114 119 129 153 159 231 264 220 199 193 183 187 188 182 177 179 178 179 188 187 177 170 175 177 180 189 196 196 187 198 189 165 174 199 195 188 179
122 123 227 262 270 218 178 183 145 147 231 171 184 263 256 191 190 179 185 192 186 179 179 174 174 171 174 173 176 180 185 191 202 199 190 197 197 180 166 182 213 191 172 175
120 109 69 335 330 342 225 199 156 141 135 162 179 258 293 178 183 189 185 189 185 176 171 167 165 170 179 181 184 187 192 200 205 193 190 191 192 192 198 193 195 189 168 155
116 120 168 201 224 232 251 249 188 141 164 207 218 233 266 238 210 204 195 187 180 175 171 168 175 184 188 188 192 196 200 201 196 192 190 192 206 210 206 191 183 184 168 155
107 152 205 234 246 234 232 235 219 196 192 195 222 219 233 223 211 203 191 178 169 173 175 177 183 190 193 196 202 200 208 209 199 190 200 211 211 203 192 179 179 176 162 170
98 148 190 290 270 257 254 243 222 218 210 204 215 243 242 217 187 179 176 170 171 183 188 186 185 188 194 203 208 207 209 214 201 195 210 211 192 186 187 187 174 162 151 159
127 132 125 267 295 336 259 235 211 207 207 189 211 229 219 179 180 181 179 177 181 188 191 191 195 199 201 205 202 205 212 204 196 202 208 201 190 190 198 189 165 170 174 160
149 137 145 218 344 244 247 244 199 193 224 206 200 206 190 184 184 177 171 173 184 187 188 194 198 204 210 210 208 207 202 194 196 204 208 205 196 200 198 182 181 189 182 174
162 149 144 154 218 270 283 258 183 177 247 211 172 167 157 138 90 12 203 173 183 188 188 192 197 200 202 210 208 196 199 199 201 211 217 212 203 199 194 192 196 196 181 188
132 128 140 159 197 233 245 250 180 120 254 264 167 159 155 126 130 250 255 204 178 176 179 185 189 191 199 216 197 187 201 202 213 221 223 216 205 200 201 203 199 195 184 194
132 130 166 187 221 257 255 249 102 158 232 232 174 163 158 171 198 216 208 193 179 173 179 184 181 189 207 203 181 193 202 214 223 224 219 210 205 203 205 200 196 187 185 180
179 179 192 176 208 249 248 147 176 212 217 180 169 168 168 178 175 163 167 168 169 178 192 188 190 213 217 195 181 197 212 222 219 211 203 204 202 199 198 186 189 179 172 173
196 193 190 193 216 238 217 205 217 183 179 190 173 176 166 164 171 173 189 208 221 216 216 211 202 219 238 217 197 208 224 214 188 181 190 196 193 195 185 179 179 172 172 178
264 185 164 234 259 260 250 223 197 179 186 190 181 177 168 176 184 189 198 215 225 229 229 220 195 212 236 245 229 220 214 188 176 180 193 196 192 197 193 186 184 181 185 191
234 184 188 246 268 308 300 258 241 244 140 145 167 178 179 174 188 191 199 212 218 228 230 205 201 215 230 236 250 232 200 180 182 188 196 201 197 194 196 192 197 197 204 200
215 189 190 229 232 213 251 262 245 201 212 191 173 188 198 187 190 191 203 210 212 217 225 226 228 226 229 226 234 227 201 185 183 189 196 200 201 200 198 189 208 232 211 212
Height
1532 1537 1542 1539 1536 1537 1539 1543 1546 1544 1539 1542 1545 1546 1544 1543 1544 1544 1545 1546 1547 1548 1549 1550 1551 1551 1552 1553 1554 1554 1554 1555 1555 1555 1555 1555 1555 1555 1555 1555 1556 1555 1555 1555
1538 1540 1534 1531 1532 1534 1538 1544 1545 1542 1538 1541 1546 1546 1543 1542 1542 1542 1543 1545 1546 1548 1549 1550 1550 1551 1552 1553 1553 1554 1554 1555 1555 1555 1555 1555 1555 1555 1556 1556 1556 1556 1555 1555
1539 1536 1530 1531 1534 1537 1540 1543 1543 1544 1541 1541 1546 1551 1547 1543 1542 1542 1543 1543 1544 1546 1547 1548 1550 1551 1552 1552 1553 1553 1554 1555 1555 1555 1555 1555 1555 1555 1555 1555 1555 1555 1555 1555
1535 1531 1530 1533 1535 1536 1544 1535 1536 1539 1548 1554 1550 1565 1552 1545 1544 1543 1543 1543 1543 1545 1546 1547 1549 1550 1551 1552 1552 1553 1554 1554 1555 1555 1555 1555 1555 1555 1555 1555 1555 1555 1555 1555
1535 1531 1532 1535 1534 1533 1536 1532 1535 1538 1545 1553 1552 1561 1558 1547 1547 1543 1541 1541 1542 1543 1545 1546 1548 1549 1550 1552 1552 1553 1553 1554 1554 1555 1555 1555 1555 1554 1555 1555 1555 1555 1555 1555
1531 1529 1529 1530 1529 1529 1530 1535 1539 1544 1551 1563 1554 1560 1560 1550 1544 1541 1540 1540 1541 1542 1544 1545 1547 1548 1549 1551 1552 1552 1553 1553 1554 1554 1554 1554 1554 1554 1554 1554 1554 1554 1555 1555
1537 1532 1528 1528 1532 1531 1534 1549 1564 1566 1570 1567 1551 1555 1554 1539 1536 1536 1536 1538 1539 1541 1543 1544 1546 1547 1548 1549 1550 1551 1552 1552 1553 1553 1553 1553 1554 1553 1553 1553 1553 1554 1554 1554
1547 1547 1531 1528 1531 1536 1536 1546 1564 1573 1573 1566 1553 1556 1547 1535 1533 1534 1535 1536 1538 1540 1542 1543 1545 1546 1547 1548 1549 1550 1551 1551 1551 1552 1552 1553 1553 1553 1553 1553 1553 1553 1553 1553
1546 1545 1529 1526 1526 1529 1536 1543 1543 1557 1560 1566 1561 1551 1542 1536 1535 1535 1536 1537 1538 1539 1541 1542 1544 1545 1546 1548 1548 1549 1549 1550 1550 1551 1551 1551 1552 1552 1552 1552 1552 1552 1552 1552
1535 1542 1532 1527 1526 1527 1530 1536 1548 1556 1567 1572 1564 1558 1553 1542 1538 1536 1536 1536 1537 1539 1540 1542 1543 1544 1545 1546 1547 1548 1548 1549 1549 1550 1550 1550 1550 1550 1550 1551 1551 1551 1551 1551
1532 1542 1539 1533 1534 1535 1534 1537 1543 1554 1558 1569 1572 1562 1536 1535 1533 1534 1534 1535 1536 1537 1539 1540 1542 1543 1544 1545 1546 1546 1547 1547 1547 1548 1548 1548 1548 1549 1549 1549 1549 1549 1550 1550
1532 1542 1546 1538 1529 1526 1530 1534 1541 1555 1557 1559 1564 1557 1528 1529 1529 1530 1532 1534 1535 1536 1538 1539 1540 1542 1543 1543 1544 1545 1545 1546 1546 1546 1546 1546 1547 1547 1547 1547 1547 1548 1548 1548
1531 1542 1553 1550 1543 1533 1531 1530 1535 1543 1552 1558 1562 1553 1528 1528 1529 1530 1531 1532 1534 1536 1537 1538 1539 1540 1541 1542 1542 1543 1543 1543 1544 1544 1544 1544 1544 1545 1545 1545 1545 1546 1546 1547
1527 1539 1548 1552 1546 1537 1534 1531 1531 1540 1552 1554 1550 1543 1533 1530 1529 1529 1530 1531 1532 1534 1535 1537 1538 1538 1539 1540 1540 1541 1541 1541 1541 1542 1542 1542 1542 1542 1542 1543 1543 1544 1544 1545
1527 1538 1537 1536 1531 1530 1530 1529 1529 1534 1539 1545 1540 1537 1531 1527 1526 1526 1528 1529 1531 1532 1534 1534 1535 1537 1537 1538 1538 1539 1539 1539 1539 1539 1539 1539 1540 1540 1540 1541 1541 1541 1542 1543
1528 1535 1535 1535 1529 1528 1529 1526 1526 1528 1529 1532 1532 1531 1522 1522 1524 1525 1526 1527 1529 1530 1531 1533 1534 1534 1535 1535 1536 1536 1536 1536 1536 1536 1536 1537 1537 1538 1538 1538 1538 1539 1540 1540
1531 1535 1541 1544 1534 1531 1535 1525 1523 1524 1522 1524 1530 1525 1520 1521 1522 1522 1523 1525 1526 1528 1529 1530 1531 1532 1532 1533 1533 1533 1534 1534 1534 1534 1534 1534 1535 1535 1536 1536 1536 1537 1537 1538
1530 1536 1543 1545 1540 1545 1529 1515 1515 1517 1517 1516 1517 1517 1517 1518 1519 1520 1521 1522 1524 1525 1527 1528 1529 1530 1530 1531 1531 1531 1531 1531 1531 1531 1531 1532 1532 1532 1533 1533 1534 1534 1535 1536
1521 1531 1541 1547 1546 1537 1523 1513 1513 1516 1519 1515 1515 1515 1516 1516 1518 1520 1521 1521 1522 1523 1524 1525 1526 1527 1527 1528 1528 1529 1529 1529 1529 1529 1529 1529 1529 1529 1530 1530 1531 1532 1532 1533
1521 1525 1537 1544 1543 1541 1522 1510 1508 1513 1520 1513 1512 1513 1515 1517 1522 1521 1519 1519 1520 1521 1522 1523 1524 1524 1524 1525 1525 1525 1525 1525 1525 1525 1525 1526 1527 1527 1527 1527 1528 1529 1530 1530
1527 1531 1536 1539 1539 1529 1512 1508 1509 1524 1521 1511 1510 1511 1513 1514 1516 1516 1516 1517 1518 1519 1520 1520 1521 1521 1521 1521 1522 1522 1522 1522 1522 1522 1523 1523 1523 1524 1524 1525 1525 1526 1526 1527
1525 1530 1533 1536 1537 1529 1507 1507 1511 1511 1507 1508 1508 1509 1510 1511 1512 1513 1514 1514 1515 1516 1517 1517 1518 1518 1518 1518 1519 1518 1518 1519 1519 1519 1519 1519 1520 1520 1521 1522 1522 1523 1523 1523
1518 1517 1519 1520 1518 1507 1504 1504 1504 1505 1505 1506 1506 1507 1508 1509 1509 1510 1511 1512 1512 1513 1514 1514 1514 1515 1515 1515 1515 1515 1515 1516 1516 1516 1516 1516 1517 1517 1517 1518 1518 1519 1520 1520
1511 1509 1511 1511 1506 1503 1502 1502 1502 1503 1503 1503 1504 1505 1505 1506 1507 1508 1508 1509 1509 1510 1511 1511 1511 1511 1511 1511 1512 1512 1512 1513 1513 1513 1513 1513 1514 1514 1514 1514 1515 1515 1516 1516
1507 1507 1508 1508 1503 1502 1500 1500 1501 1501 1501 1501 1502 1502 1503 1503 1504 1504 1505 1506 1506 1507 1507 1508 1508 1508 1508 1508 1508 1509 1509 1509 1509 1509 1509 1510 1510 1510 1511 1511 1511 1512 1512 1513
1504 1505 1507 1506 1501 1501 1499 1499 1499 1498 1498 1499 1499 1499 1500 1500 1500 1501 1502 1503 1503 1504 1504 1504 1505 1505 1505 1505 1505 1505 1506 1506 1506 1506 1506 1506 1506 1506 1506 1507 1507 1508 1509 1509